THOR AGENA D R/B, 727

Orbit data source: Space-Track

THOR AGENA D R/B, 727 is space debris in LEO originally from a launch on Sat, 11 Jan 1964 UTC via a THOR SLV-2A AGENA D launch vehicle from the Air Force Western Test Range (AFWTR). Debris objects in space refer to the collection of defunct objects orbiting the Earth. Examples of debris include non-operational satellites, rocket bodies, and fragments generated from explosions, collisions, or faulty payload assembly.

Loading next visibility...
Identifier
727, 1964-001A
Orbit
LEO
Country
Flag of USUS
Related business
Manufacturer
HRB-Singer
Mission
Spacecraft
Bus & Motor
AFTRACK, Unknown motor
Mass
~700 kg wet, 5 kg dry
Launch date (UTC)
1964-01-11 (62 years ago)
Launch vehicle
THOR SLV-2A AGENA D
Launch site
Air Force Western Test Range (AFWTR)
Object type
Payload
Rocket body
Debris
Shape & HBR
Unknown
Radar Cross Section
Large (>1 m²)

Expand to show TLE details & history
Last TLE update: 14 hours ago

TLE from 14 hours ago
0 THOR AGENA D R/B
1 00727U 64001A   26177.65115138 -.00000022  00000-0  23406-4 0  9994
2 00727  69.9064 270.1169 0012229  25.7019 334.4691 13.95797631178476
Epoch: 2026-06-26T15:37Z
TLE epoch observation values (Epoch: 2026-06-26T15:37:39.479Z)
Latitude
-0.00002°
Longitude
120.92579°
Altitude
902.65 km
Speed
7.405 km/s
True Right ascension
18h 00m 28s
True Declination
0° 00' 00"
Sunlit
Object was in full shadow at epoch
Visualization orbit readout
Latitude
Unknown
Longitude
Unknown
Altitude
Unknown
Speed
Unknown
Apparent Right ascension
Unknown
Apparent Declination
Unknown
Sunlit
N/A
Visualization observer readout
Local Sidereal Time
17:08:04
Azimuth
Unknown
Elevation
Unknown
Doppler factor
Unknown
Orbital elements
Apogee altitude
915.345 km
Perigee altitude
897.528 km
Semi-major axis
7,284.574 km
Eccentricity
0.00122
Inclination
69.9064°
RAAN
270.1169°
Arg. of periapsis
25.7019°
True anomaly
334.40862°
Mean anomaly
334.4691°
Eccentric anomaly
334.43887°
Mean motion
3.4909 °/min
Orbital period
103.13 mins
BSTAR
0.000023406
Loading maneuver chart data...
Computing Atmospheric mass density...
Loading historical data...
Loading historical data...
Loading historical data...
Loading historical data...
Loading historical data...
Loading historical data...
Loading historical data...
Other satellites on launch #1 in the year 1964 (1964-01-11 UTC)

Documentation

Showing up to 5 results
|